User: anonymous   Login
Location: Unspecified
(40.9833°N, 0.0000°E)
Time: 00:56:36
(UTC+00:00)
Language:

EO-88 - Orbit

View from above orbital plane
View from above orbital plane
View from above satellite
View from above satellite

Ground track
Ground track

The orbit data is extracted from the following two-line orbital elements,

1 42017U 17008BX  19202.82159205  .00000753  00000-0  32468-4 0  9998
2 42017  97.4012 269.5724 0007668  61.4178 298.7831 15.25584449134977
Epoch (UTC): 21 July 2019 19:43:05
Eccentricity: 0.0007668
inclination: 97.4012°
perigee height: 484 km
apogee height: 494 km
right ascension of ascending node: 269.5724°
argument of perigee: 61.4178°
revolutions per day: 15.25584449
mean anomaly at epoch: 298.7831°
orbit number at epoch: 13497

The dashed part of the orbit path shows where the satellite is in the earth's shadow,  

DLR